Regional Weather Roundup
Issued by NWS Cleveland, OH

Home | Current Version | Previous Version | Text Only | Print | Product List | Glossary Off
Versions: 1 2 3 4 5 6 7 8 9 10 11 12 13 14 15 16 17 18 19 20 21 22 23 24 25 26 27 28 29 30 31 32 33 34 35 36 37 38 39 40 41 42 43 44 45 46 47 48 49 50

000
ASUS41 KCLE 160902
RWRCLE
OHIO REGIONAL WEATHER ROUNDUP
NATIONAL WEATHER SERVICE CLEVELAND, OH
500 AM EDT TUE SEP 16 2014

NOTE: "FAIR" INDICATES FEW OR NO CLOUDS BELOW 12,000 FEET WITH NO
SIGNIFICANT WEATHER AND/OR OBSTRUCTIONS TO VISIBILITY.

OHZ001>008-015>018-024>027-034-035-043-044-161000-
   NORTHWEST OHIO

CITY           SKY/WX    TMP DP  RH WIND       PRES   REMARKS
DEFIANCE       CLOUDY    54  51  90 CALM      30.13F
FINDLAY        CLOUDY    53  51  93 NW6       30.11S FOG
TOLEDO EXPRESS CLOUDY    53  51  93 NW5       30.12S
TOLEDO EXEC    CLOUDY    54  51  90 NW6       30.13S
LIMA           CLOUDY    53  52  96 N9        30.12S FOG
$$

OHZ009>014-019>023-028>033-038-089-161000-
   NORTHEAST OHIO

CITY           SKY/WX    TMP DP  RH WIND       PRES   REMARKS
CLE-HOPKINS    LGT RAIN  54  52  93 SW6       30.11S FOG
CLE-LAKEFRONT  MOCLDY    55  52  89 SW9       30.07S
CUY CO. ARPT   NOT AVBL
LORAIN-ELYRIA  CLOUDY    57  52  83 W7        30.10S HAZE
ASHTABULA      CLOUDY    51  51 100 CALM      30.08S FOG
AKRON-CANTON   MOCLDY    53  50  89 NW3       30.09R FOG
WOOSTER        MOCLDY    53  51  93 NW5       30.10S
MANSFIELD      CLOUDY    50  50 100 W8        30.11R FOG
YOUNGSTOWN     DRIZZLE   53  52  96 NW3       30.08R FOG
$$

OHZ042-051>053-060>062-070>072-077>081-161000-
  SOUTHWEST OHIO

CITY           SKY/WX    TMP DP  RH WIND       PRES   REMARKS
CINC-COVINGTON CLOUDY    59  56  89 NE6       30.10S FOG
CINC-LUNKEN    CLOUDY    58  58 100 CALM      30.11S FOG
HAMILTON       CLOUDY    59  57  93 N3        30.11S
DAYTON         CLOUDY    56  54  93 N8        30.12R
WRIGHT-PAT AFB MOCLDY    55  55 100 N6        30.11R
DAYTON GENERAL CLOUDY    57  56  96 N6        30.10R FOG
WILMINGTON     CLOUDY    57  55  93 N5        30.09F FOG
$$

OHZ036-037-039>041-045>050-054>059-063>069-073>076-082>088-161000-
  CENTRAL AND SOUTHEAST OHIO

CITY           SKY/WX    TMP DP  RH WIND       PRES   REMARKS
COLUMBUS       CLOUDY    58  51  78 N7        30.09S
OSU AIRPORT    CLOUDY    55  51  86 N7        30.10S
BOLTON FIELD   CLOUDY    55  54  96 NW5       30.10S
RICKENBACK AFB CLOUDY    56  53  89 N3        30.08F
NEWARK         CLOUDY    56  52  86 W5        30.09S
MARION         CLOUDY    52  50  93 N9        30.11F FOG
LANCASTER      CLOUDY    57  54  89 CALM      30.09S
ZANESVILLE     MOCLDY    55  52  89 CALM      30.08S
NEW PHILLY     CLOUDY    56  55  97 NW3       30.09R
$$


USA.gov is the U.S. government's official web portal to all federal, state and local government web resources and services.